Location: Dvur Kralove nad Labem
(50.4330°N, 15.8170°E)
Time: 17:17:00
(UTC+01:00)

ISS - Pass Details

Date: 10 November 2018
Orbit: 401 x 408 km, 51.6° (Epoch: 20 November)

Event Time Altitude Azimuth Distance (km) Brightness Sun altitude
Exits shadow 04:25:39 31° 98° (E) 738 -2.0 -25.0°
Drops below altitude 10° 04:27:30 10° 101° (E) 1,463 0.0 -24.7°
Sets 04:29:35 0° 102° (ESE) 2,323 1.3 -24.4°
